Location: Dal�� Lhota
(48.7500°N, 14.0167°E)
Time: 23:10:03
(UTC+00:00)

USA 186 - Pass Details

Date: 24 September 2020
Orbit: 261 x 425 km, 96.9° (Epoch: 12 October)

Event Time Altitude Azimuth Distance (km) Brightness Sun altitude
Exits shadow 18:11:22 19° 137° (SE) 1,073 3.3 -13.0°
Maximum altitude 18:13:22 44° 73° (ENE) 606 2.1 -13.3°
Drops below altitude 10° 18:16:32 10° 0° (N) 1,538 4.8 -13.8°
Sets 18:18:37 0° 354° (N) 2,412 5.9 -14.2°
